Weather in Lashma

Russia / Ryazan Oblast     54°55′13″N   41°07′51″E
temp.,
°C
wind,
m/s
gust,
m/s
humid.,
%
clouds,
%
prec.,
mm/h
press.,
hPa
HPBL,
m
28 february, sun
sun2800:00−13nw239794 0.0 101378
03:00−14nw239780 0.1 101482
06:00−13nw249788 0.1 1015123
09:00−11nnw259380 0.1 1015277
12:00−8nw248894 0.1 1015463
15:00−6nnw248797 0.1 1016561
18:00−7nnw2493100 0.1 1017163
21:00−8n2495100 0.1 1019159
1 march, mon
mon100:00−11n119697 0.0 102121
03:00−12nw129797 0.1 102221
06:00−13w129785 0.0 102320
09:00−10wsw119557 0.0 102474
12:00−4sw359383 0.0 1023323
15:00−2wsw479091 0.1 1021659
18:00−2wsw4992100 0.1 1019616
21:00−1wsw51193100 0.1 1016659
2 march, tue
tue200:000wsw51295100 0.9 1012687
03:00+1w51293100 0.9 1009768
06:000w61297100 0.7 1006787
09:00+1nw51198100 2.1 1005767
12:00+1nw61199100 0.3 10061018
15:00+1nw51186100 0.4 10061215
18:00−1wnw51387100 0.2 1006753
21:00−2nw41293100 0.4 1007730
3 march, wed
wed300:00−3nw4129496 0.1 1008703
03:00−4nw5129497 0.2 1009704
06:00−5nw51290100 0.1 1010782
09:00−5nw61288100 0.2 1012791
12:00−3nnw61182100 0.1 1014938
15:00−2nw61079100 0.1 10151208
18:00−5nw3118798 0.1 1016553
21:00−5nw3109296 0.1 1017435
4 march, thu
thu400:00−6w379795 0.0 1017166
03:00−7w389564 0.0 1016169
06:00−6sw4119426 0.0 1014280
09:00−4wsw5128963 0.0 1012549
12:00−1wsw61190100 0.0 1010665
15:000wsw61290100 0.0 1007796
18:00−1sw6148798 0.0 1005780
21:00−1wsw6148794 0.0 1003798